Time,TemperatureF,DewpointF,PressureIn,WindDirection,WindDirectionDegrees,WindSpeedMPH,WindSpeedGustMPH,Humidity,HourlyPrecipIn,Conditions,Clouds,dailyrainin,SolarRadiationWatts/m^2,SoftwareType,DateUTC
2013-07-06 00:01:00,72.1,71.5,30.24,North,11,0.0,0.0,98,0.00,,,0.00,0,WeatherCatV1.10B1570,2013-07-06 04:01:00,
2013-07-06 00:06:00,71.9,71.3,30.23,North,11,0.0,0.0,98,0.00,,,0.00,0,WeatherCatV1.10B1570,2013-07-06 04:06:00,
2013-07-06 00:11:00,71.8,71.2,30.23,North,11,0.0,0.0,98,0.00,,,0.00,0,WeatherCatV1.10B1570,2013-07-06 04:11:00,
2013-07-06 00:16:00,71.7,71.1,30.23,North,11,0.0,0.0,98,0.00,,,0.00,0,WeatherCatV1.10B1570,2013-07-06 04:16:00,
2013-07-06 00:21:00,71.8,71.2,30.23,North,11,0.0,0.0,98,0.00,,,0.00,0,WeatherCatV1.10B1570,2013-07-06 04:21:00,
2013-07-06 00:26:00,71.9,71.3,30.23,North,11,0.0,0.0,98,0.00,,,0.00,0,WeatherCatV1.10B1570,2013-07-06 04:26:00,
2013-07-06 00:31:00,71.8,71.2,30.23,North,11,0.0,0.0,98,0.00,,,0.00,0,WeatherCatV1.10B1570,2013-07-06 04:31:00,
2013-07-06 00:36:00,71.8,71.2,30.23,North,11,0.0,0.0,98,0.00,,,0.00,0,WeatherCatV1.10B1570,2013-07-06 04:36:00,
2013-07-06 00:41:00,71.9,71.3,30.23,North,11,0.0,0.0,98,0.00,,,0.00,0,WeatherCatV1.10B1570,2013-07-06 04:41:00,
2013-07-06 00:46:00,72.0,71.4,30.23,NNE,12,0.0,0.0,98,0.00,,,0.00,0,WeatherCatV1.10B1570,2013-07-06 04:46:00,
2013-07-06 00:51:00,72.1,71.5,30.23,East,101,0.0,1.0,98,0.00,,,0.00,0,WeatherCatV1.10B1570,2013-07-06 04:51:00,
2013-07-06 00:56:00,72.2,71.6,30.23,ESE,110,0.0,2.0,98,0.00,,,0.00,0,WeatherCatV1.10B1570,2013-07-06 04:56:00,
2013-07-06 01:01:00,72.2,71.6,30.23,SE,136,0.0,0.0,98,0.00,,,0.00,0,WeatherCatV1.10B1570,2013-07-06 05:01:00,
2013-07-06 01:06:00,72.2,71.6,30.23,SE,139,0.0,1.0,98,0.00,,,0.00,0,WeatherCatV1.10B1570,2013-07-06 05:06:00,
2013-07-06 01:11:00,72.2,71.3,30.23,SE,139,0.0,1.0,97,0.00,,,0.00,0,WeatherCatV1.10B1570,2013-07-06 05:11:00,
2013-07-06 01:16:00,72.2,71.3,30.23,SE,139,0.0,0.0,97,0.00,,,0.00,0,WeatherCatV1.10B1570,2013-07-06 05:16:00,
2013-07-06 01:21:00,72.2,71.6,30.23,SE,139,0.0,0.0,98,0.00,,,0.00,0,WeatherCatV1.10B1570,2013-07-06 05:21:00,
2013-07-06 01:26:00,72.2,71.6,30.23,SE,139,0.0,0.0,98,0.00,,,0.00,0,WeatherCatV1.10B1570,2013-07-06 05:26:00,
2013-07-06 01:31:00,72.2,71.6,30.23,SE,139,0.0,0.0,98,0.00,,,0.00,0,WeatherCatV1.10B1570,2013-07-06 05:31:00,
2013-07-06 01:36:00,72.2,71.6,30.23,SE,139,0.0,0.0,98,0.00,,,0.00,0,WeatherCatV1.10B1570,2013-07-06 05:36:00,
2013-07-06 01:41:00,72.1,71.5,30.22,SE,139,1.0,1.0,98,0.00,,,0.00,0,WeatherCatV1.10B1570,2013-07-06 05:41:00,
2013-07-06 01:46:00,72.1,71.2,30.22,SE,139,0.0,1.0,97,0.00,,,0.00,0,WeatherCatV1.10B1570,2013-07-06 05:46:00,
2013-07-06 01:51:00,72.1,71.2,30.22,SE,139,0.0,0.0,97,0.00,,,0.00,0,WeatherCatV1.10B1570,2013-07-06 05:51:00,
2013-07-06 01:56:00,72.0,71.1,30.21,SE,139,0.0,0.0,97,0.00,,,0.00,0,WeatherCatV1.10B1570,2013-07-06 05:56:00,
2013-07-06 02:01:00,71.9,71.3,30.22,SE,139,0.0,0.0,98,0.00,,,0.00,0,WeatherCatV1.10B1570,2013-07-06 06:01:00,
2013-07-06 02:06:00,71.8,71.2,30.22,SE,139,0.0,0.0,98,0.00,,,0.00,0,WeatherCatV1.10B1570,2013-07-06 06:06:00,
2013-07-06 02:11:00,71.7,71.1,30.22,SE,139,0.0,0.0,98,0.00,,,0.00,0,WeatherCatV1.10B1570,2013-07-06 06:11:00,
2013-07-06 02:16:00,71.5,70.6,30.22,SE,139,0.0,0.0,97,0.00,,,0.00,0,WeatherCatV1.10B1570,2013-07-06 06:16:00,
2013-07-06 02:21:00,71.3,70.4,30.22,SE,139,0.0,0.0,97,0.00,,,0.00,0,WeatherCatV1.10B1570,2013-07-06 06:21:00,
2013-07-06 02:26:00,71.2,70.6,30.22,SE,139,0.0,0.0,98,0.00,,,0.00,0,WeatherCatV1.10B1570,2013-07-06 06:26:00,
2013-07-06 02:31:00,71.1,70.5,30.22,SE,139,0.0,0.0,98,0.00,,,0.00,0,WeatherCatV1.10B1570,2013-07-06 06:31:00,
2013-07-06 02:36:00,71.0,70.4,30.22,SE,139,0.0,0.0,98,0.00,,,0.00,0,WeatherCatV1.10B1570,2013-07-06 06:36:00,
2013-07-06 02:41:00,71.0,70.4,30.22,SE,139,0.0,0.0,98,0.00,,,0.00,0,WeatherCatV1.10B1570,2013-07-06 06:41:00,
2013-07-06 02:46:00,71.0,70.4,30.22,SE,139,0.0,0.0,98,0.00,,,0.00,0,WeatherCatV1.10B1570,2013-07-06 06:46:00,
2013-07-06 02:51:00,70.9,70.3,30.22,SE,139,0.0,0.0,98,0.00,,,0.00,0,WeatherCatV1.10B1570,2013-07-06 06:51:00,
2013-07-06 02:56:00,71.0,70.4,30.22,SE,139,0.0,0.0,98,0.00,,,0.00,0,WeatherCatV1.10B1570,2013-07-06 06:56:00,
2013-07-06 03:01:00,71.1,70.5,30.22,SE,139,0.0,0.0,98,0.00,,,0.00,0,WeatherCatV1.10B1570,2013-07-06 07:01:00,
2013-07-06 03:06:00,71.1,70.5,30.22,SE,139,0.0,0.0,98,0.00,,,0.00,0,WeatherCatV1.10B1570,2013-07-06 07:06:00,
2013-07-06 03:11:00,71.0,70.4,30.22,SE,139,0.0,0.0,98,0.00,,,0.00,0,WeatherCatV1.10B1570,2013-07-06 07:11:00,
2013-07-06 03:16:00,71.0,70.4,30.22,SE,139,0.0,0.0,98,0.00,,,0.00,0,WeatherCatV1.10B1570,2013-07-06 07:16:00,
2013-07-06 03:21:00,71.1,70.5,30.22,SE,139,0.0,0.0,98,0.00,,,0.00,0,WeatherCatV1.10B1570,2013-07-06 07:21:00,
2013-07-06 03:26:00,71.0,70.4,30.22,SE,139,0.0,0.0,98,0.00,,,0.00,0,WeatherCatV1.10B1570,2013-07-06 07:26:00,
2013-07-06 03:31:00,70.9,70.3,30.22,SE,139,0.0,0.0,98,0.00,,,0.00,0,WeatherCatV1.10B1570,2013-07-06 07:31:00,
2013-07-06 03:36:00,70.7,70.1,30.22,SE,139,0.0,0.0,98,0.00,,,0.00,0,WeatherCatV1.10B1570,2013-07-06 07:36:00,
2013-07-06 03:41:00,70.7,70.1,30.22,SE,139,0.0,0.0,98,0.00,,,0.00,0,WeatherCatV1.10B1570,2013-07-06 07:41:00,
2013-07-06 03:46:00,70.6,70.0,30.22,SE,139,0.0,0.0,98,0.00,,,0.00,0,WeatherCatV1.10B1570,2013-07-06 07:46:00,
2013-07-06 03:51:00,70.6,70.0,30.22,SE,139,0.0,0.0,98,0.00,,,0.00,0,WeatherCatV1.10B1570,2013-07-06 07:51:00,
2013-07-06 03:56:00,70.6,70.0,30.22,SE,139,0.0,0.0,98,0.00,,,0.00,0,WeatherCatV1.10B1570,2013-07-06 07:56:00,
2013-07-06 04:01:00,70.5,69.9,30.22,SE,139,0.0,0.0,98,0.00,,,0.00,0,WeatherCatV1.10B1570,2013-07-06 08:01:00,
2013-07-06 04:06:00,70.4,69.8,30.22,SE,139,0.0,0.0,98,0.00,,,0.00,0,WeatherCatV1.10B1570,2013-07-06 08:06:00,
2013-07-06 04:11:00,70.4,69.8,30.22,SE,139,0.0,0.0,98,0.00,,,0.00,0,WeatherCatV1.10B1570,2013-07-06 08:11:00,
2013-07-06 04:16:00,70.4,69.8,30.22,SE,139,0.0,0.0,98,0.00,,,0.00,0,WeatherCatV1.10B1570,2013-07-06 08:16:00,
2013-07-06 04:21:00,70.5,69.9,30.22,SE,139,0.0,0.0,98,0.00,,,0.00,0,WeatherCatV1.10B1570,2013-07-06 08:21:00,
2013-07-06 04:26:00,70.5,69.9,30.22,SE,139,0.0,0.0,98,0.00,,,0.00,0,WeatherCatV1.10B1570,2013-07-06 08:26:00,
2013-07-06 04:31:00,70.4,69.8,30.22,SE,139,0.0,0.0,98,0.00,,,0.00,0,WeatherCatV1.10B1570,2013-07-06 08:31:00,
2013-07-06 04:36:00,70.4,69.8,30.22,SE,139,0.0,0.0,98,0.00,,,0.00,0,WeatherCatV1.10B1570,2013-07-06 08:36:00,
2013-07-06 04:41:00,70.4,69.8,30.22,SE,139,0.0,0.0,98,0.00,,,0.00,0,WeatherCatV1.10B1570,2013-07-06 08:41:00,
2013-07-06 04:46:00,70.3,69.7,30.22,SE,139,0.0,0.0,98,0.00,,,0.00,0,WeatherCatV1.10B1570,2013-07-06 08:46:00,
2013-07-06 04:51:00,70.2,69.6,30.22,SE,139,0.0,0.0,98,0.00,,,0.00,0,WeatherCatV1.10B1570,2013-07-06 08:51:00,
2013-07-06 04:56:00,70.2,69.6,30.22,SE,139,0.0,0.0,98,0.00,,,0.00,0,WeatherCatV1.10B1570,2013-07-06 08:56:00,
2013-07-06 05:01:00,70.2,69.6,30.22,SE,139,0.0,0.0,98,0.00,,,0.00,0,WeatherCatV1.10B1570,2013-07-06 09:01:00,
2013-07-06 05:06:00,70.2,69.6,30.22,SE,139,0.0,0.0,98,0.00,,,0.00,0,WeatherCatV1.10B1570,2013-07-06 09:06:00,
2013-07-06 05:11:00,70.2,69.6,30.22,SE,139,0.0,0.0,98,0.00,,,0.00,0,WeatherCatV1.10B1570,2013-07-06 09:11:00,
2013-07-06 05:16:00,70.1,69.5,30.22,SE,139,0.0,0.0,98,0.00,,,0.00,0,WeatherCatV1.10B1570,2013-07-06 09:16:00,
2013-07-06 05:21:00,70.0,69.4,30.22,SE,139,0.0,0.0,98,0.00,,,0.00,0,WeatherCatV1.10B1570,2013-07-06 09:21:00,
2013-07-06 05:26:00,69.9,69.3,30.22,SE,139,0.0,0.0,98,0.00,,,0.00,0,WeatherCatV1.10B1570,2013-07-06 09:26:00,
2013-07-06 05:31:00,69.7,69.1,30.22,SE,139,0.0,0.0,98,0.00,,,0.00,0,WeatherCatV1.10B1570,2013-07-06 09:31:00,
2013-07-06 05:36:00,69.7,69.1,30.23,SE,139,0.0,0.0,98,0.00,,,0.00,0,WeatherCatV1.10B1570,2013-07-06 09:36:00,
2013-07-06 05:41:00,69.7,69.1,30.23,SE,139,0.0,0.0,98,0.00,,,0.00,0,WeatherCatV1.10B1570,2013-07-06 09:41:00,
2013-07-06 05:46:00,69.8,69.2,30.23,SE,139,0.0,0.0,98,0.00,,,0.00,0,WeatherCatV1.10B1570,2013-07-06 09:46:00,
2013-07-06 05:51:00,69.8,69.2,30.23,ESE,108,0.0,0.0,98,0.00,,,0.00,0,WeatherCatV1.10B1570,2013-07-06 09:51:00,
2013-07-06 05:56:00,69.9,69.3,30.24,ESE,108,0.0,0.0,98,0.00,,,0.00,0,WeatherCatV1.10B1570,2013-07-06 09:56:00,
2013-07-06 06:01:00,70.1,69.5,30.24,East,90,0.0,0.0,98,0.00,,,0.00,0,WeatherCatV1.10B1570,2013-07-06 10:01:00,
2013-07-06 06:06:00,70.1,69.5,30.24,East,90,0.0,0.0,98,0.00,,,0.00,0,WeatherCatV1.10B1570,2013-07-06 10:06:00,
2013-07-06 06:11:00,70.1,69.5,30.24,East,85,0.0,0.0,98,0.00,,,0.00,0,WeatherCatV1.10B1570,2013-07-06 10:11:00,
2013-07-06 06:16:00,70.2,69.6,30.24,East,90,0.0,0.0,98,0.00,,,0.00,0,WeatherCatV1.10B1570,2013-07-06 10:16:00,
2013-07-06 06:21:00,70.2,69.6,30.24,East,85,0.0,1.0,98,0.00,,,0.00,7,WeatherCatV1.10B1570,2013-07-06 10:21:00,
2013-07-06 06:26:00,70.3,69.7,30.24,East,85,0.0,1.0,98,0.00,,,0.00,11,WeatherCatV1.10B1570,2013-07-06 10:26:00,
2013-07-06 06:31:00,70.4,69.8,30.24,ESE,106,0.0,1.0,98,0.00,,,0.00,14,WeatherCatV1.10B1570,2013-07-06 10:31:00,
2013-07-06 06:36:00,70.4,69.8,30.24,East,101,0.0,0.0,98,0.00,,,0.00,18,WeatherCatV1.10B1570,2013-07-06 10:36:00,
2013-07-06 06:41:00,70.5,69.9,30.25,East,90,0.0,1.0,98,0.00,,,0.00,21,WeatherCatV1.10B1570,2013-07-06 10:41:00,
2013-07-06 06:46:00,70.5,69.9,30.25,East,90,0.0,0.0,98,0.00,,,0.00,23,WeatherCatV1.10B1570,2013-07-06 10:46:00,
2013-07-06 06:51:00,70.6,70.0,30.25,East,95,0.0,1.0,98,0.00,,,0.00,23,WeatherCatV1.10B1570,2013-07-06 10:51:00,
2013-07-06 06:56:00,70.6,70.0,30.24,East,95,0.0,1.0,98,0.00,,,0.00,26,WeatherCatV1.10B1570,2013-07-06 10:56:00,
2013-07-06 07:01:00,70.7,70.1,30.25,East,95,0.0,0.0,98,0.00,,,0.00,28,WeatherCatV1.10B1570,2013-07-06 11:01:00,
2013-07-06 07:06:00,70.8,70.2,30.25,East,95,0.0,2.0,98,0.00,,,0.00,30,WeatherCatV1.10B1570,2013-07-06 11:06:00,
2013-07-06 07:11:00,70.8,70.2,30.25,ENE,75,0.0,1.0,98,0.00,,,0.00,51,WeatherCatV1.10B1570,2013-07-06 11:11:00,
2013-07-06 07:16:00,70.8,70.2,30.25,ESE,103,0.0,1.0,98,0.00,,,0.00,67,WeatherCatV1.10B1570,2013-07-06 11:16:00,
2013-07-06 07:21:00,71.0,70.4,30.25,ESE,122,0.0,1.0,98,0.00,,,0.00,72,WeatherCatV1.10B1570,2013-07-06 11:21:00,
2013-07-06 07:26:00,71.1,70.5,30.25,ESE,122,0.0,1.0,98,0.00,,,0.00,63,WeatherCatV1.10B1570,2013-07-06 11:26:00,
2013-07-06 07:31:00,71.2,70.6,30.25,SSE,153,0.0,0.0,98,0.00,,,0.00,105,WeatherCatV1.10B1570,2013-07-06 11:31:00,
2013-07-06 07:36:00,71.3,70.7,30.25,SSE,153,0.0,0.0,98,0.00,,,0.00,90,WeatherCatV1.10B1570,2013-07-06 11:36:00,
2013-07-06 07:41:00,71.5,70.6,30.25,SSE,157,0.0,1.0,97,0.00,,,0.00,118,WeatherCatV1.10B1570,2013-07-06 11:41:00,
2013-07-06 07:46:00,71.7,70.8,30.25,SSE,157,0.0,1.0,97,0.00,,,0.00,130,WeatherCatV1.10B1570,2013-07-06 11:46:00,
2013-07-06 07:51:00,71.8,70.9,30.25,SSE,159,0.0,2.0,97,0.00,,,0.00,114,WeatherCatV1.10B1570,2013-07-06 11:51:00,
2013-07-06 07:56:00,71.9,71.0,30.25,SSW,204,0.0,0.0,97,0.00,,,0.00,301,WeatherCatV1.10B1570,2013-07-06 11:56:00,
2013-07-06 08:01:00,72.1,71.2,30.26,SSW,204,0.0,0.0,97,0.00,,,0.00,353,WeatherCatV1.10B1570,2013-07-06 12:01:00,
2013-07-06 08:06:00,72.4,71.2,30.26,SSW,204,0.0,0.0,96,0.00,,,0.00,169,WeatherCatV1.10B1570,2013-07-06 12:06:00,
2013-07-06 08:11:00,72.6,71.4,30.26,NW,308,0.0,1.0,96,0.00,,,0.00,144,WeatherCatV1.10B1570,2013-07-06 12:11:00,
2013-07-06 08:16:00,72.8,71.3,30.26,West,280,0.0,0.0,95,0.00,,,0.00,142,WeatherCatV1.10B1570,2013-07-06 12:16:00,
2013-07-06 08:21:00,72.9,71.4,30.26,West,275,0.0,0.0,95,0.00,,,0.00,209,WeatherCatV1.10B1570,2013-07-06 12:21:00,
2013-07-06 08:26:00,72.9,71.4,30.26,South,188,0.0,0.0,95,0.00,,,0.00,165,WeatherCatV1.10B1570,2013-07-06 12:26:00,
2013-07-06 08:31:00,73.0,71.5,30.26,WNW,282,0.0,2.0,95,0.00,,,0.00,353,WeatherCatV1.10B1570,2013-07-06 12:31:00,
2013-07-06 08:36:00,73.3,71.5,30.26,WSW,257,0.0,0.0,94,0.00,,,0.00,211,WeatherCatV1.10B1570,2013-07-06 12:36:00,
2013-07-06 08:41:00,73.7,71.5,30.26,WSW,257,0.0,0.0,93,0.00,,,0.00,251,WeatherCatV1.10B1570,2013-07-06 12:41:00,
2013-07-06 08:46:00,74.1,71.9,30.26,WSW,257,0.0,0.0,93,0.00,,,0.00,135,WeatherCatV1.10B1570,2013-07-06 12:46:00,
2013-07-06 08:51:00,74.1,71.3,30.26,South,190,0.0,0.0,91,0.00,,,0.00,135,WeatherCatV1.10B1570,2013-07-06 12:51:00,
2013-07-06 08:56:00,73.8,71.3,30.26,South,190,0.0,1.0,92,0.00,,,0.00,81,WeatherCatV1.10B1570,2013-07-06 12:56:00,
2013-07-06 09:01:00,73.6,71.1,30.26,South,190,1.0,1.0,92,0.00,,,0.00,74,WeatherCatV1.10B1570,2013-07-06 13:01:00,
2013-07-06 09:06:00,74.0,71.2,30.26,SSW,194,0.0,1.0,91,0.00,,,0.00,499,WeatherCatV1.10B1570,2013-07-06 13:06:00,
2013-07-06 09:11:00,75.2,72.1,30.26,SSE,152,1.0,1.0,90,0.00,,,0.00,536,WeatherCatV1.10B1570,2013-07-06 13:11:00,
2013-07-06 09:16:00,75.3,72.2,30.26,ESE,109,0.0,2.0,90,0.00,,,0.00,540,WeatherCatV1.10B1570,2013-07-06 13:16:00,
2013-07-06 09:21:00,75.1,71.6,30.27,SSE,165,0.0,1.0,89,0.00,,,0.00,121,WeatherCatV1.10B1570,2013-07-06 13:21:00,
2013-07-06 09:26:00,74.4,70.9,30.26,SSE,165,0.0,1.0,89,0.00,,,0.00,183,WeatherCatV1.10B1570,2013-07-06 13:26:00,
2013-07-06 09:31:00,74.6,71.5,30.26,SSE,165,0.0,1.0,90,0.00,,,0.00,571,WeatherCatV1.10B1570,2013-07-06 13:31:00,
2013-07-06 09:36:00,75.5,72.0,30.26,SSE,154,0.0,1.0,89,0.00,,,0.00,629,WeatherCatV1.10B1570,2013-07-06 13:36:00,
2013-07-06 09:41:00,76.4,72.2,30.26,South,178,0.0,3.0,87,0.00,,,0.00,265,WeatherCatV1.10B1570,2013-07-06 13:41:00,
2013-07-06 09:46:00,76.6,72.8,30.26,South,178,0.0,2.0,88,0.00,,,0.00,726,WeatherCatV1.10B1570,2013-07-06 13:46:00,
2013-07-06 09:51:00,77.4,72.2,30.26,SSE,153,0.0,1.0,84,0.00,,,0.01,687,WeatherCatV1.10B1570,2013-07-06 13:51:00,
2013-07-06 09:56:00,77.1,71.9,30.26,ENE,68,1.0,2.0,84,0.00,,,0.01,304,WeatherCatV1.10B1570,2013-07-06 13:56:00,
2013-07-06 10:01:00,76.8,72.3,30.26,SSE,151,1.0,1.0,86,0.00,,,0.01,125,WeatherCatV1.10B1570,2013-07-06 14:01:00,
2013-07-06 10:06:00,77.3,72.4,30.26,South,172,0.0,1.0,85,0.00,,,0.01,763,WeatherCatV1.10B1570,2013-07-06 14:06:00,
2013-07-06 10:11:00,78.0,72.8,30.25,SSW,193,0.0,2.0,84,0.00,,,0.01,733,WeatherCatV1.10B1570,2013-07-06 14:11:00,
2013-07-06 10:16:00,78.3,72.7,30.25,SE,127,1.0,2.0,83,0.00,,,0.01,791,WeatherCatV1.10B1570,2013-07-06 14:16:00,
2013-07-06 10:21:00,78.5,72.2,30.25,SSE,159,1.0,2.0,81,0.00,,,0.01,677,WeatherCatV1.10B1570,2013-07-06 14:21:00,
2013-07-06 10:26:00,78.6,72.6,30.25,SSE,159,0.0,2.0,82,0.00,,,0.01,708,WeatherCatV1.10B1570,2013-07-06 14:26:00,
2013-07-06 10:31:00,79.3,72.2,30.25,South,180,0.0,1.0,79,0.00,,,0.01,807,WeatherCatV1.10B1570,2013-07-06 14:31:00,
2013-07-06 10:36:00,79.6,72.9,30.25,WNW,292,0.0,2.0,80,0.00,,,0.01,155,WeatherCatV1.10B1570,2013-07-06 14:36:00,
2013-07-06 10:41:00,80.1,72.2,30.25,NW,326,0.0,0.0,77,0.00,,,0.01,882,WeatherCatV1.10B1570,2013-07-06 14:41:00,
2013-07-06 10:46:00,81.2,72.1,30.26,WSW,241,0.0,2.0,74,0.00,,,0.01,816,WeatherCatV1.10B1570,2013-07-06 14:46:00,
2013-07-06 10:51:00,80.5,72.2,30.26,SSW,200,0.0,2.0,76,0.00,,,0.01,911,WeatherCatV1.10B1570,2013-07-06 14:51:00,
2013-07-06 10:56:00,80.4,72.5,30.26,SSW,209,0.0,2.0,77,0.00,,,0.01,350,WeatherCatV1.10B1570,2013-07-06 14:56:00,
2013-07-06 11:01:00,79.7,72.2,30.26,West,265,0.0,0.0,78,0.00,,,0.01,380,WeatherCatV1.10B1570,2013-07-06 15:01:00,
2013-07-06 11:06:00,79.6,72.5,30.26,West,259,0.0,1.0,79,0.00,,,0.01,287,WeatherCatV1.10B1570,2013-07-06 15:06:00,
2013-07-06 11:11:00,79.8,71.5,30.25,West,259,0.0,0.0,76,0.00,,,0.01,265,WeatherCatV1.10B1570,2013-07-06 15:11:00,
2013-07-06 11:16:00,80.8,72.1,30.25,WNW,291,0.0,0.0,75,0.00,,,0.01,965,WeatherCatV1.10B1570,2013-07-06 15:16:00,
2013-07-06 11:21:00,80.8,72.5,30.25,South,178,0.0,1.0,76,0.00,,,0.01,350,WeatherCatV1.10B1570,2013-07-06 15:21:00,
2013-07-06 11:26:00,81.7,72.6,30.25,WSW,238,0.0,3.0,74,0.00,,,0.01,244,WeatherCatV1.10B1570,2013-07-06 15:26:00,
2013-07-06 11:31:00,80.6,72.3,30.25,West,278,0.0,2.0,76,0.00,,,0.01,327,WeatherCatV1.10B1570,2013-07-06 15:31:00,
2013-07-06 11:36:00,80.1,72.2,30.25,SW,236,0.0,0.0,77,0.00,,,0.01,339,WeatherCatV1.10B1570,2013-07-06 15:36:00,
2013-07-06 11:41:00,81.1,72.0,30.25,NW,312,0.0,4.0,74,0.00,,,0.01,993,WeatherCatV1.10B1570,2013-07-06 15:41:00,
2013-07-06 11:46:00,81.5,72.4,30.25,West,277,1.0,3.0,74,0.00,,,0.01,984,WeatherCatV1.10B1570,2013-07-06 15:46:00,
2013-07-06 11:51:00,81.9,73.2,30.25,SW,230,0.0,2.0,75,0.00,,,0.01,246,WeatherCatV1.10B1570,2013-07-06 15:51:00,
2013-07-06 11:56:00,81.3,72.6,30.25,NNW,330,2.0,2.0,75,0.00,,,0.01,255,WeatherCatV1.10B1570,2013-07-06 15:56:00,
2013-07-06 12:01:00,81.7,72.2,30.25,West,278,0.0,1.0,73,0.00,,,0.01,287,WeatherCatV1.10B1570,2013-07-06 16:01:00,
2013-07-06 12:06:00,81.0,72.7,30.25,WSW,257,0.0,0.0,76,0.00,,,0.01,350,WeatherCatV1.10B1570,2013-07-06 16:06:00,
2013-07-06 12:11:00,81.8,71.5,30.25,SSW,205,0.0,2.0,71,0.00,,,0.01,1027,WeatherCatV1.10B1570,2013-07-06 16:11:00,
2013-07-06 12:16:00,81.7,70.5,30.25,SSE,163,1.0,3.0,69,0.00,,,0.01,292,WeatherCatV1.10B1570,2013-07-06 16:16:00,
2013-07-06 12:20:00,82.3,71.9,30.25,South,172,0.0,0.0,71,0.00,,,0.01,1035,WeatherCatV1.10B1570,2013-07-06 16:20:00,
2013-07-06 12:25:00,84.0,71.4,30.25,SE,137,1.0,3.0,66,0.00,,,0.01,1157,WeatherCatV1.10B1570,2013-07-06 16:25:00,
2013-07-06 12:30:00,83.6,72.3,30.25,West,270,1.0,7.0,69,0.00,,,0.01,279,WeatherCatV1.10B1570,2013-07-06 16:30:00,
2013-07-06 12:35:00,83.5,73.5,30.25,West,263,3.0,3.0,72,0.00,,,0.01,1083,WeatherCatV1.10B1570,2013-07-06 16:35:00,
2013-07-06 12:40:00,83.0,72.6,30.24,WSW,248,0.0,0.0,71,0.00,,,0.01,606,WeatherCatV1.10B1570,2013-07-06 16:40:00,
2013-07-06 12:45:00,82.8,71.6,30.24,West,270,0.0,0.0,69,0.00,,,0.01,1069,WeatherCatV1.10B1570,2013-07-06 16:45:00,
2013-07-06 12:50:00,82.9,72.1,30.24,ENE,66,1.0,1.0,70,0.00,,,0.01,1114,WeatherCatV1.10B1570,2013-07-06 16:50:00,
2013-07-06 12:55:00,83.5,72.2,30.24,SSE,148,0.0,1.0,69,0.00,,,0.01,1130,WeatherCatV1.10B1570,2013-07-06 16:55:00,
2013-07-06 13:00:00,84.6,73.3,30.23,SSE,159,0.0,2.0,69,0.00,,,0.01,1118,WeatherCatV1.10B1570,2013-07-06 17:00:00,
2013-07-06 13:05:00,83.9,71.7,30.23,SE,128,0.0,1.0,67,0.00,,,0.01,1118,WeatherCatV1.10B1570,2013-07-06 17:05:00,
2013-07-06 13:10:00,84.4,72.2,30.23,SSE,166,0.0,3.0,67,0.00,,,0.01,1100,WeatherCatV1.10B1570,2013-07-06 17:10:00,
2013-07-06 13:15:00,83.7,71.1,30.23,SSE,167,0.0,1.0,66,0.00,,,0.01,1111,WeatherCatV1.10B1570,2013-07-06 17:15:00,
2013-07-06 13:20:00,84.3,71.2,30.23,South,184,0.0,2.0,65,0.00,,,0.01,1127,WeatherCatV1.10B1570,2013-07-06 17:20:00,
2013-07-06 13:25:00,83.0,70.0,30.22,South,172,1.0,2.0,65,0.00,,,0.01,341,WeatherCatV1.10B1570,2013-07-06 17:25:00,
2013-07-06 13:30:00,83.0,71.8,30.22,South,172,1.0,1.0,69,0.00,,,0.01,267,WeatherCatV1.10B1570,2013-07-06 17:30:00,
2013-07-06 13:35:00,83.6,72.3,30.22,WNW,298,0.0,2.0,69,0.00,,,0.01,1121,WeatherCatV1.10B1570,2013-07-06 17:35:00,
2013-07-06 13:40:00,84.7,72.1,30.22,West,261,0.0,1.0,66,0.00,,,0.01,221,WeatherCatV1.10B1570,2013-07-06 17:40:00,
2013-07-06 13:45:00,84.7,72.1,30.21,SW,234,0.0,0.0,66,0.00,,,0.01,1116,WeatherCatV1.10B1570,2013-07-06 17:45:00,
2013-07-06 13:50:00,84.9,71.8,30.21,South,172,0.0,0.0,65,0.00,,,0.01,1095,WeatherCatV1.10B1570,2013-07-06 17:50:00,
2013-07-06 13:55:00,85.0,71.4,30.21,SSE,151,1.0,2.0,64,0.00,,,0.01,1041,WeatherCatV1.10B1570,2013-07-06 17:55:00,
2013-07-06 14:00:00,84.0,70.9,30.21,SSE,151,1.0,1.0,65,0.00,,,0.01,1121,WeatherCatV1.10B1570,2013-07-06 18:00:00,
2013-07-06 14:05:00,84.6,72.4,30.21,South,180,0.0,1.0,67,0.00,,,0.01,1041,WeatherCatV1.10B1570,2013-07-06 18:05:00,
2013-07-06 14:10:00,86.0,71.9,30.20,NE,54,0.0,1.0,63,0.00,,,0.01,1048,WeatherCatV1.10B1570,2013-07-06 18:10:00,
2013-07-06 14:15:00,86.4,72.3,30.20,SSW,198,0.0,1.0,63,0.00,,,0.01,1062,WeatherCatV1.10B1570,2013-07-06 18:15:00,
2013-07-06 14:20:00,86.6,72.0,30.20,SSW,202,0.0,3.0,62,0.00,,,0.01,963,WeatherCatV1.10B1570,2013-07-06 18:20:00,
2013-07-06 14:25:00,86.2,70.7,30.20,West,263,1.0,1.0,60,0.00,,,0.01,954,WeatherCatV1.10B1570,2013-07-06 18:25:00,
2013-07-06 14:30:00,85.1,70.6,30.19,South,175,0.0,2.0,62,0.00,,,0.01,970,WeatherCatV1.10B1570,2013-07-06 18:30:00,
2013-07-06 14:35:00,85.6,71.1,30.19,SSE,161,0.0,2.0,62,0.00,,,0.01,1016,WeatherCatV1.10B1570,2013-07-06 18:35:00,
2013-07-06 14:40:00,84.5,71.0,30.19,SSE,159,1.0,1.0,64,0.00,,,0.01,990,WeatherCatV1.10B1570,2013-07-06 18:40:00,
2013-07-06 14:46:00,85.8,71.7,30.19,NE,55,1.0,1.0,63,0.00,,,0.01,970,WeatherCatV1.10B1570,2013-07-06 18:46:00,
2013-07-06 14:51:00,86.1,72.5,30.19,SSE,159,0.0,2.0,64,0.00,,,0.01,972,WeatherCatV1.10B1570,2013-07-06 18:51:00,
2013-07-06 14:56:00,86.1,71.5,30.18,SSE,158,0.0,3.0,62,0.00,,,0.01,186,WeatherCatV1.10B1570,2013-07-06 18:56:00,
2013-07-06 15:01:00,85.7,71.6,30.18,SE,139,0.0,3.0,63,0.00,,,0.01,979,WeatherCatV1.10B1570,2013-07-06 19:01:00,
2013-07-06 15:06:00,86.5,71.9,30.18,NNW,343,1.0,1.0,62,0.00,,,0.01,1016,WeatherCatV1.10B1570,2013-07-06 19:06:00,
2013-07-06 15:11:00,87.0,70.9,30.18,NE,36,3.0,3.0,59,0.00,,,0.01,1035,WeatherCatV1.10B1570,2013-07-06 19:11:00,
2013-07-06 15:16:00,88.1,72.4,30.18,NE,48,0.0,2.0,60,0.00,,,0.01,958,WeatherCatV1.10B1570,2013-07-06 19:16:00,
2013-07-06 15:21:00,86.7,70.6,30.18,South,170,1.0,2.0,59,0.00,,,0.01,345,WeatherCatV1.10B1570,2013-07-06 19:21:00,
2013-07-06 15:26:00,85.5,71.4,30.18,East,95,1.0,3.0,63,0.00,,,0.01,383,WeatherCatV1.10B1570,2013-07-06 19:26:00,
2013-07-06 15:31:00,85.4,71.3,30.18,South,182,2.0,2.0,63,0.00,,,0.01,200,WeatherCatV1.10B1570,2013-07-06 19:31:00,
2013-07-06 15:36:00,83.8,70.8,30.18,SW,226,0.0,2.0,65,0.00,,,0.01,200,WeatherCatV1.10B1570,2013-07-06 19:36:00,
2013-07-06 15:41:00,83.9,70.8,30.18,SW,226,0.0,1.0,65,0.00,,,0.01,207,WeatherCatV1.10B1570,2013-07-06 19:41:00,
2013-07-06 15:46:00,83.7,70.7,30.17,South,176,0.0,0.0,65,0.00,,,0.01,167,WeatherCatV1.10B1570,2013-07-06 19:46:00,
2013-07-06 15:51:00,83.7,71.1,30.17,South,173,0.0,1.0,66,0.00,,,0.01,195,WeatherCatV1.10B1570,2013-07-06 19:51:00,
2013-07-06 15:56:00,84.2,71.1,30.17,SW,216,1.0,1.0,65,0.00,,,0.01,928,WeatherCatV1.10B1570,2013-07-06 19:56:00,
2013-07-06 16:01:00,85.2,71.6,30.17,SSW,207,1.0,1.0,64,0.00,,,0.01,863,WeatherCatV1.10B1570,2013-07-06 20:01:00,
2013-07-06 16:06:00,85.6,71.1,30.16,SSE,161,1.0,2.0,62,0.00,,,0.01,807,WeatherCatV1.10B1570,2013-07-06 20:06:00,
2013-07-06 16:11:00,86.3,72.2,30.16,ESE,105,0.0,3.0,63,0.00,,,0.01,814,WeatherCatV1.10B1570,2013-07-06 20:11:00,
2013-07-06 16:16:00,86.2,71.6,30.16,SSE,162,2.0,2.0,62,0.00,,,0.01,789,WeatherCatV1.10B1570,2013-07-06 20:16:00,
2013-07-06 16:21:00,86.4,70.3,30.16,SSE,148,1.0,2.0,59,0.00,,,0.01,786,WeatherCatV1.10B1570,2013-07-06 20:21:00,
2013-07-06 16:26:00,86.0,71.4,30.15,SSW,193,0.0,2.0,62,0.00,,,0.01,798,WeatherCatV1.10B1570,2013-07-06 20:26:00,
2013-07-06 16:31:00,86.1,72.0,30.15,SSW,193,0.0,1.0,63,0.00,,,0.01,828,WeatherCatV1.10B1570,2013-07-06 20:31:00,
2013-07-06 16:36:00,87.1,72.5,30.15,SSE,168,0.0,1.0,62,0.00,,,0.01,777,WeatherCatV1.10B1570,2013-07-06 20:36:00,
2013-07-06 16:41:00,87.1,72.5,30.15,NW,319,1.0,2.0,62,0.00,,,0.01,816,WeatherCatV1.10B1570,2013-07-06 20:41:00,
2013-07-06 16:46:00,87.6,72.5,30.15,SSE,151,1.0,2.0,61,0.00,,,0.01,784,WeatherCatV1.10B1570,2013-07-06 20:46:00,
2013-07-06 16:51:00,87.0,71.4,30.15,SE,128,0.0,3.0,60,0.00,,,0.01,698,WeatherCatV1.10B1570,2013-07-06 20:51:00,
2013-07-06 16:56:00,87.4,72.3,30.15,ENE,76,1.0,4.0,61,0.00,,,0.01,670,WeatherCatV1.10B1570,2013-07-06 20:56:00,
2013-07-06 17:01:00,86.3,71.2,30.15,East,90,0.0,1.0,61,0.00,,,0.01,708,WeatherCatV1.10B1570,2013-07-06 21:01:00,
2013-07-06 17:06:00,85.9,70.9,30.15,ESE,123,1.0,3.0,61,0.00,,,0.01,671,WeatherCatV1.10B1570,2013-07-06 21:06:00,
2013-07-06 17:11:00,85.0,70.5,30.15,SSE,151,0.0,2.0,62,0.00,,,0.01,142,WeatherCatV1.10B1570,2013-07-06 21:11:00,
2013-07-06 17:16:00,85.1,71.1,30.14,SSE,153,0.0,1.0,63,0.00,,,0.01,661,WeatherCatV1.10B1570,2013-07-06 21:16:00,
2013-07-06 17:21:00,85.6,71.5,30.14,East,99,0.0,0.0,63,0.00,,,0.01,613,WeatherCatV1.10B1570,2013-07-06 21:21:00,
2013-07-06 17:26:00,85.6,72.0,30.14,ESE,120,1.0,2.0,64,0.00,,,0.01,533,WeatherCatV1.10B1570,2013-07-06 21:26:00,
2013-07-06 17:31:00,84.8,71.2,30.14,South,178,0.0,2.0,64,0.00,,,0.01,79,WeatherCatV1.10B1570,2013-07-06 21:31:00,
2013-07-06 17:36:00,84.4,71.3,30.14,South,178,0.0,1.0,65,0.00,,,0.01,543,WeatherCatV1.10B1570,2013-07-06 21:36:00,
2013-07-06 17:41:00,84.5,71.9,30.14,South,178,0.0,0.0,66,0.00,,,0.01,471,WeatherCatV1.10B1570,2013-07-06 21:41:00,
2013-07-06 17:46:00,84.4,71.8,30.13,North,353,0.0,0.0,66,0.00,,,0.01,151,WeatherCatV1.10B1570,2013-07-06 21:46:00,
2013-07-06 17:51:00,85.0,71.9,30.13,North,353,0.0,0.0,65,0.00,,,0.01,555,WeatherCatV1.10B1570,2013-07-06 21:51:00,
2013-07-06 17:56:00,84.7,72.9,30.13,SSE,151,1.0,1.0,68,0.00,,,0.01,367,WeatherCatV1.10B1570,2013-07-06 21:56:00,
2013-07-06 18:01:00,84.5,72.3,30.13,NNW,337,0.0,3.0,67,0.00,,,0.01,105,WeatherCatV1.10B1570,2013-07-06 22:01:00,
2013-07-06 18:06:00,84.0,71.8,30.13,SSW,201,0.0,1.0,67,0.00,,,0.01,118,WeatherCatV1.10B1570,2013-07-06 22:06:00,
2013-07-06 18:11:00,83.9,72.2,30.12,SSW,201,0.0,0.0,68,0.00,,,0.01,497,WeatherCatV1.10B1570,2013-07-06 22:11:00,
2013-07-06 18:16:00,84.5,72.7,30.13,SE,140,0.0,2.0,68,0.00,,,0.01,522,WeatherCatV1.10B1570,2013-07-06 22:16:00,
2013-07-06 18:21:00,84.6,72.0,30.13,South,172,1.0,3.0,66,0.00,,,0.01,401,WeatherCatV1.10B1570,2013-07-06 22:21:00,
2013-07-06 18:26:00,84.4,72.2,30.13,South,179,1.0,2.0,67,0.00,,,0.01,151,WeatherCatV1.10B1570,2013-07-06 22:26:00,
2013-07-06 18:31:00,83.8,72.5,30.13,South,179,0.0,2.0,69,0.00,,,0.01,86,WeatherCatV1.10B1570,2013-07-06 22:31:00,
2013-07-06 18:36:00,82.9,71.7,30.13,SSE,168,0.0,3.0,69,0.00,,,0.01,83,WeatherCatV1.10B1570,2013-07-06 22:36:00,
2013-07-06 18:41:00,82.6,72.2,30.13,SSE,167,0.0,0.0,71,0.00,,,0.01,102,WeatherCatV1.10B1570,2013-07-06 22:41:00,
2013-07-06 18:46:00,82.5,72.5,30.13,SSE,167,0.0,0.0,72,0.00,,,0.01,297,WeatherCatV1.10B1570,2013-07-06 22:46:00,
2013-07-06 18:51:00,82.7,72.7,30.13,SSE,167,0.0,2.0,72,0.00,,,0.01,304,WeatherCatV1.10B1570,2013-07-06 22:51:00,
2013-07-06 18:56:00,82.8,72.4,30.13,South,182,2.0,2.0,71,0.00,,,0.01,130,WeatherCatV1.10B1570,2013-07-06 22:56:00,
2013-07-06 19:01:00,82.8,72.0,30.13,South,182,1.0,2.0,70,0.00,,,0.01,287,WeatherCatV1.10B1570,2013-07-06 23:01:00,
2013-07-06 19:06:00,82.7,73.1,30.14,SSW,213,1.0,5.0,73,0.00,,,0.01,56,WeatherCatV1.10B1570,2013-07-06 23:06:00,
2013-07-06 19:11:00,80.6,73.1,30.14,SSW,192,3.0,5.0,78,0.00,,,0.01,60,WeatherCatV1.10B1570,2013-07-06 23:11:00,
2013-07-06 19:16:00,78.1,72.9,30.15,SW,218,2.0,2.0,84,0.39,,,0.04,51,WeatherCatV1.10B1570,2013-07-06 23:16:00,
2013-07-06 19:21:00,76.1,72.3,30.15,SW,218,0.0,1.0,88,0.09,,,0.04,35,WeatherCatV1.10B1570,2013-07-06 23:21:00,
2013-07-06 19:26:00,75.3,72.2,30.14,SSW,200,0.0,1.0,90,0.05,,,0.04,30,WeatherCatV1.10B1570,2013-07-06 23:26:00,
2013-07-06 19:31:00,74.7,71.9,30.14,SSW,199,0.0,0.0,91,0.04,,,0.04,23,WeatherCatV1.10B1570,2013-07-06 23:31:00,
2013-07-06 19:36:00,74.4,72.2,30.15,SSW,199,0.0,0.0,93,0.00,,,0.04,14,WeatherCatV1.10B1570,2013-07-06 23:36:00,
2013-07-06 19:41:00,74.2,72.4,30.15,SSW,199,0.0,0.0,94,0.00,,,0.04,14,WeatherCatV1.10B1570,2013-07-06 23:41:00,
2013-07-06 19:46:00,74.3,72.5,30.15,SSW,199,0.0,0.0,94,0.00,,,0.04,14,WeatherCatV1.10B1570,2013-07-06 23:46:00,
2013-07-06 19:51:00,74.5,73.0,30.15,SSW,199,0.0,0.0,95,0.00,,,0.04,16,WeatherCatV1.10B1570,2013-07-06 23:51:00,
2013-07-06 19:56:00,74.4,72.9,30.15,SSW,199,0.0,0.0,95,0.00,,,0.04,14,WeatherCatV1.10B1570,2013-07-06 23:56:00,
2013-07-06 20:01:00,74.5,73.0,30.15,SSW,199,0.0,0.0,95,0.00,,,0.04,12,WeatherCatV1.10B1570,2013-07-07 00:01:00,
2013-07-06 20:06:00,74.6,73.4,30.15,SSW,197,0.0,0.0,96,0.00,,,0.04,12,WeatherCatV1.10B1570,2013-07-07 00:06:00,
2013-07-06 20:11:00,74.8,73.3,30.15,South,191,0.0,0.0,95,0.00,,,0.04,9,WeatherCatV1.10B1570,2013-07-07 00:11:00,
2013-07-06 20:16:00,74.6,73.4,30.15,South,191,0.0,0.0,96,0.00,,,0.04,9,WeatherCatV1.10B1570,2013-07-07 00:16:00,
2013-07-06 20:21:00,74.4,73.2,30.15,South,190,0.0,1.0,96,0.00,,,0.04,7,WeatherCatV1.10B1570,2013-07-07 00:21:00,
2013-07-06 20:26:00,74.4,73.2,30.15,South,190,0.0,0.0,96,0.00,,,0.04,5,WeatherCatV1.10B1570,2013-07-07 00:26:00,
2013-07-06 20:31:00,74.3,73.1,30.15,South,190,0.0,0.0,96,0.00,,,0.04,0,WeatherCatV1.10B1570,2013-07-07 00:31:00,
2013-07-06 20:36:00,74.4,73.2,30.15,SSE,163,0.0,1.0,96,0.00,,,0.04,0,WeatherCatV1.10B1570,2013-07-07 00:36:00,
2013-07-06 20:41:00,74.5,73.6,30.16,SSE,163,0.0,0.0,97,0.00,,,0.04,0,WeatherCatV1.10B1570,2013-07-07 00:41:00,
2013-07-06 20:46:00,74.5,73.3,30.16,SSE,163,0.0,0.0,96,0.00,,,0.04,0,WeatherCatV1.10B1570,2013-07-07 00:46:00,
2013-07-06 20:51:00,74.7,73.5,30.16,SSE,163,0.0,0.0,96,0.00,,,0.04,0,WeatherCatV1.10B1570,2013-07-07 00:51:00,
2013-07-06 20:56:00,74.7,73.5,30.16,SSE,163,0.0,0.0,96,0.00,,,0.04,0,WeatherCatV1.10B1570,2013-07-07 00:56:00,
2013-07-06 21:01:00,74.7,73.5,30.16,SSE,163,0.0,0.0,96,0.00,,,0.04,0,WeatherCatV1.10B1570,2013-07-07 01:01:00,
2013-07-06 21:06:00,74.7,73.5,30.17,SSE,163,0.0,0.0,96,0.00,,,0.04,0,WeatherCatV1.10B1570,2013-07-07 01:06:00,
2013-07-06 21:11:00,74.8,73.6,30.17,SSE,163,0.0,0.0,96,0.00,,,0.04,0,WeatherCatV1.10B1570,2013-07-07 01:11:00,
2013-07-06 21:16:00,74.8,73.6,30.17,SSE,163,0.0,0.0,96,0.00,,,0.04,0,WeatherCatV1.10B1570,2013-07-07 01:16:00,
2013-07-06 21:21:00,74.8,73.6,30.17,SSE,163,0.0,0.0,96,0.00,,,0.04,0,WeatherCatV1.10B1570,2013-07-07 01:21:00,
2013-07-06 21:26:00,74.9,73.7,30.17,SSE,163,0.0,0.0,96,0.00,,,0.04,0,WeatherCatV1.10B1570,2013-07-07 01:26:00,
2013-07-06 21:31:00,74.9,74.0,30.18,SSE,163,0.0,0.0,97,0.00,,,0.04,0,WeatherCatV1.10B1570,2013-07-07 01:31:00,
2013-07-06 21:36:00,74.9,74.0,30.18,SSE,163,0.0,0.0,97,0.00,,,0.04,0,WeatherCatV1.10B1570,2013-07-07 01:36:00,
2013-07-06 21:41:00,74.9,73.7,30.19,SSE,163,0.0,0.0,96,0.00,,,0.04,0,WeatherCatV1.10B1570,2013-07-07 01:41:00,
2013-07-06 21:46:00,74.9,73.7,30.19,SSE,163,0.0,0.0,96,0.00,,,0.04,0,WeatherCatV1.10B1570,2013-07-07 01:46:00,
2013-07-06 21:51:00,75.0,73.8,30.19,SSE,163,0.0,0.0,96,0.00,,,0.04,0,WeatherCatV1.10B1570,2013-07-07 01:51:00,
2013-07-06 21:56:00,74.9,73.7,30.19,SSE,163,0.0,0.0,96,0.00,,,0.04,0,WeatherCatV1.10B1570,2013-07-07 01:56:00,
2013-07-06 22:01:00,74.9,73.7,30.19,SSE,163,0.0,0.0,96,0.00,,,0.04,0,WeatherCatV1.10B1570,2013-07-07 02:01:00,
2013-07-06 22:06:00,74.9,74.0,30.19,SSE,163,0.0,0.0,97,0.00,,,0.04,0,WeatherCatV1.10B1570,2013-07-07 02:06:00,
2013-07-06 22:11:00,75.0,73.8,30.19,SSE,163,0.0,0.0,96,0.00,,,0.04,0,WeatherCatV1.10B1570,2013-07-07 02:11:00,
2013-07-06 22:16:00,75.0,73.8,30.19,SSE,163,0.0,0.0,96,0.00,,,0.04,0,WeatherCatV1.10B1570,2013-07-07 02:16:00,
2013-07-06 22:21:00,74.9,73.7,30.19,SSE,163,0.0,0.0,96,0.00,,,0.04,0,WeatherCatV1.10B1570,2013-07-07 02:21:00,
2013-07-06 22:26:00,75.0,73.8,30.19,SSE,163,0.0,0.0,96,0.00,,,0.04,0,WeatherCatV1.10B1570,2013-07-07 02:26:00,
2013-07-06 22:31:00,74.9,73.7,30.19,SSE,163,0.0,0.0,96,0.00,,,0.04,0,WeatherCatV1.10B1570,2013-07-07 02:31:00,
2013-07-06 22:36:00,74.8,73.6,30.20,SSE,163,0.0,0.0,96,0.00,,,0.04,0,WeatherCatV1.10B1570,2013-07-07 02:36:00,
2013-07-06 22:40:00,74.8,73.6,30.20,SSE,163,0.0,0.0,96,0.00,,,0.04,0,WeatherCatV1.10B1570,2013-07-07 02:40:00,
2013-07-06 22:45:00,74.8,73.6,30.20,SSE,163,0.0,0.0,96,0.00,,,0.04,0,WeatherCatV1.10B1570,2013-07-07 02:45:00,
2013-07-06 22:50:00,74.7,73.5,30.20,SSE,163,0.0,0.0,96,0.00,,,0.04,0,WeatherCatV1.10B1570,2013-07-07 02:50:00,
2013-07-06 22:55:00,74.8,73.6,30.20,SSE,163,0.0,0.0,96,0.00,,,0.04,0,WeatherCatV1.10B1570,2013-07-07 02:55:00,
2013-07-06 23:00:00,74.7,73.5,30.20,SSE,163,0.0,0.0,96,0.00,,,0.04,0,WeatherCatV1.10B1570,2013-07-07 03:00:00,
2013-07-06 23:05:00,74.7,73.5,30.20,SSE,163,0.0,0.0,96,0.00,,,0.04,0,WeatherCatV1.10B1570,2013-07-07 03:05:00,
2013-07-06 23:10:00,74.7,73.5,30.20,SSE,163,0.0,0.0,96,0.00,,,0.04,0,WeatherCatV1.10B1570,2013-07-07 03:10:00,
2013-07-06 23:15:00,74.7,73.5,30.20,SSE,163,0.0,0.0,96,0.00,,,0.04,0,WeatherCatV1.10B1570,2013-07-07 03:15:00,
2013-07-06 23:20:00,74.7,73.5,30.20,ENE,60,1.0,1.0,96,0.00,,,0.04,0,WeatherCatV1.10B1570,2013-07-07 03:20:00,
2013-07-06 23:25:00,74.4,72.9,30.20,South,186,0.0,2.0,95,0.00,,,0.04,0,WeatherCatV1.10B1570,2013-07-07 03:25:00,
2013-07-06 23:30:00,74.2,72.7,30.20,South,186,0.0,0.0,95,0.00,,,0.04,0,WeatherCatV1.10B1570,2013-07-07 03:30:00,
2013-07-06 23:35:00,74.0,72.5,30.20,SSW,205,0.0,2.0,95,0.44,,,0.07,0,WeatherCatV1.10B1570,2013-07-07 03:35:00,
2013-07-06 23:40:00,73.8,72.6,30.20,SSW,205,0.0,0.0,96,0.13,,,0.08,0,WeatherCatV1.10B1570,2013-07-07 03:40:00,
2013-07-06 23:45:00,73.6,72.4,30.20,SSW,205,0.0,0.0,96,0.09,,,0.08,0,WeatherCatV1.10B1570,2013-07-07 03:45:00,
2013-07-06 23:50:00,73.5,72.3,30.20,SSW,205,0.0,2.0,96,0.05,,,0.08,0,WeatherCatV1.10B1570,2013-07-07 03:50:00,
2013-07-06 23:55:00,73.3,72.1,30.20,NW,321,0.0,1.0,96,0.04,,,0.08,0,WeatherCatV1.10B1570,2013-07-07 03:55:00,